AirNav   Air Wisconsin pilot careers
 
 959 users online  

KCHN Wauchula Municipal Airport
Wauchula, Florida, USA

GOING TO WAUCHULA?


FAA INFORMATION EFFECTIVE 03 JANUARY 2019

Location

FAA Identifier: CHN
Lat/Long: 27-30-53.7000N / 081-52-49.7000W
27-30.895000N / 081-52.828333W
27.5149167 / -81.8804722
(estimated)
Elevation: 107.8 ft. / 32.9 m (surveyed)
Variation: 04W (2000)
From city: 5 miles SW of WAUCHULA, FL
Time zone: UTC -5 (UTC -4 during Daylight Saving Time)
Zip code: 33873

Airport Operations

Airport use: Open to the public
Activation date: 11/1983
Control tower: no
ARTCC: MIAMI CENTER
FSS: SAINT PETERSBURG FLIGHT SERVICE STATION
NOTAMs facility: PIE (NOTAM-D service available)
Attendance: 1600-2000
Wind indicator: lighted
Segmented circle: yes
Lights: SS-SR
Beacon: white-green (lighted land airport)
Operates sunset to sunrise.

Airport Communications

CTAF: 122.9
WX AWOS-3 at AVO (19 nm E): 118.725 (863-453-4223)
  • APCH/DEP SERVICE PROVIDED BY MIAMI ARTCC ON FREQS 134.55/257.7 (AVON PARK RCAG).

Nearby radio navigation aids

VOR radial/distance  VOR name  Freq  Var
LALr165/29.1LAKELAND VORTAC116.0001E
PGDr015/(36.4)PUNTA GORDA VOR110.2006W
SRQr085/36.9SARASOTA VOR/DME117.0005W

Airport Services

Fuel available: 100LL
FUEL 24 HR CREDIT CARD SVC AVBL.
Parking: tiedowns
Airframe service: MINOR
Powerplant service: MINOR
Bottled oxygen: NONE
Bulk oxygen: NONE

Runway Information

Runway 18/36

Dimensions: 4005 x 75 ft. / 1221 x 23 m
Surface: asphalt, in good condition
Weight bearing capacity: 
PCN 7 /F/B/Y/T
Single wheel: 24.0
Double wheel: 39.0
Runway edge lights: medium intensity
RUNWAY 18  RUNWAY 36
Latitude: 27-31.224823N27-30.563918N
Longitude: 081-52.828178W081-52.827343W
Elevation: 99.3 ft.103.3 ft.
Traffic pattern: leftleft
Runway heading: 184 magnetic, 180 true004 magnetic, 360 true
Markings: nonprecision, in fair conditionnonprecision, in fair condition
Visual slope indicator: 4-light PAPI on left (3.00 degrees glide path)4-light PAPI on left (3.00 degrees glide path)
Runway end identifier lights: nono
Touchdown point: yes, no lightsyes, no lights
Obstructions: 38 ft. trees, 655 ft. from runway, 40 ft. left of centerline, 12:1 slope to clear21 ft. tree, 490 ft. from runway, 125 ft. right of centerline, 14:1 slope to clear

Airport Ownership and Management from official FAA records

Ownership: Publicly-owned
Owner: CITY OF WAUCHULA
126 S 7TH AVE.
WAUCHULA, FL 33873
Phone 863-773-3131
CONTACT PERSON: JAMES BRADDOCK
Manager: WARD GRIMES
1202 MAURICE SONNY CLAVEL RD.
WAUCHULA, FL 33873
Phone (863) 773-3115
AIRPORT PHYSICAL ADDRESS: 1202 MAURICE SONNY CLAVEL ROAD.

Airport Operational Statistics

Aircraft based on the field: 27
Single engine airplanes: 22
Multi engine airplanes: 4
Ultralights: 1
    
Aircraft operations: avg 22/day *
59% transient general aviation
41% local general aviation
* for 12-month period ending 12 July 2017

Additional Remarks

BLDG 175 FT EAST AND PLINE 250 FT EAST OF RY 18/36 SOUTHERN 1/4 RY IN 7:1 TRANSITION SURFACE.

Instrument Procedures

NOTE: All procedures below are presented as PDF files. If you need a reader for these files, you should download the free Adobe Reader.

NOT FOR NAVIGATION. Please procure official charts for flight.
FAA instrument procedures published for use from 3 January 2019 at 0901Z to 31 January 2019 at 0900Z.

 
IAPs - Instrument Approach Procedures
RNAV (GPS) RWY 18   download (209KB)
RNAV (GPS) RWY 36   download (194KB)
NOTE: Special Take-Off Minimums/Departure Procedures apply   download (162KB)

Other nearby airports with instrument procedures:

KAVO - Avon Park Executive Airport (19 nm E)
X06 - Arcadia Municipal Airport (19 nm S)
KBOW - Bartow Municipal Airport (26 nm N)
X07 - Lake Wales Municipal Airport (27 nm NE)
KSEF - Sebring Regional Airport (29 nm E)
 
Loc | Ops | Rwys | IFR | FBO | Links
Com | Nav | Svcs | Stats | Notes


 
Area around KCHN (Wauchula Municipal Airport)
 
Road maps at: MapQuest Bing Google
 
Aerial photo
WARNING: Photo may not be current or correct
Aerial photo of KCHN (Wauchula Municipal Airport)
Photo by Joshua C. Smith
Photo taken 16-Feb-2015
looking east.

Do you have a better or more recent aerial photo of Wauchula Municipal Airport that you would like to share? If so, please send us your photo.

 
Sectional chart

 
Airport diagram
CAUTION: Diagram may not be current
Diagram of KCHN (Wauchula Municipal Airport)
 
Airport distance calculator
Flying to Wauchula Municipal Airport? Find the distance to fly.

From to KCHN

Sunrise and sunset
Times for 20-Jan-2019
 Local
(UTC-5)
 Zulu
(UTC)
Morning civil twilight06:5511:55
Sunrise07:1912:19
Sunset17:5822:58
Evening civil twilight18:2323:23

Current date and time
Zulu (UTC)  20-Jan-2019 22:44:16
Local (UTC-5)  20-Jan-2019 17:44:16
 
METAR
KBOW 
26nm N 
202235Z AUTO 29013KT 260V320 10SM OVC022 11/05 A3001 RMK AO2
KX07 
27nm NE 
202235Z AUTO 30010G19KT 10SM SCT024 12/07 A3002 RMK A01
KLAL 
28nm N 
202150Z 30016G24KT 10SM BKN023 11/06 A3001
KSEF 
29nm E 
202235Z AUTO 29012G21KT 10SM SCT025 14/07 A3002 RMK AO2 T01360068
KPCM 
33nm NW 
202235Z AUTO 30012G18KT 10SM OVC021 11/06 A3006 RMK AO2
KGIF 
34nm N 
202153Z AUTO 30017G24KT 10SM BKN025 12/06 A3000 RMK AO2 PK WND 31026/2111 SLP159 T01220061
KPGD 
36nm S 
202153Z 31018G26KT 10SM OVC036 15/08 A3004 RMK AO2 PK WND 31028/2111 SLP171 T01500078
KSRQ 
37nm W 
202153Z 32016G22KT 10SM OVC027 14/08 A3002 RMK AO2 PK WND 32027/2113 SLP164 T01390083 $
KTPF 
39nm NW 
202235Z AUTO 32010G19KT 10SM OVC022 11/07 A3006 RMK AO2
KVDF 
39nm NW 
202235Z AUTO 31008G18KT 10SM OVC022 10/06 A3006 RMK AO2
TAF
KLAL 
28nm N 
202114Z 2021/2118 30015G25KT P6SM SCT030 OVC050 TEMPO 2021/2024 BKN025 FM210000 30012KT P6SM FEW025 SCT250 FM210300 35005KT P6SM SKC FM211400 03008KT P6SM SKC
NOTAMs
Click for the latest NOTAMs
NOTAMs are issued by the DoD/FAA and will open in a separate window not controlled by AirNav.

 

 
 

FBO, Fuel Providers, and Aircraft Ground Support

  
 Business Name 
 
 Contact 
 
 Services / Description 
 
Fuel Prices
 
Comments
  
Wauchula Municipal Airport Authority 122.90
863-773-3115
863-832-0896
[web site]
[email]
Airport management, Aviation fuel, Aircraft parking (ramp or tiedown), Hangar leasing / sales, Pilots lounge / snooze room, Public telephone, Computerized weather, ...
More info and photos of Wauchula Municipal Airport Authority
Phillips 66
100LL
SS $3.90 
GUARANTEED
 
   3 read write
SS=Self service
Update Fuel Prices
 

Would you like to see your business listed on this page?

 If your business provides an interesting product or service to pilots, flight crews, aircraft, or users of the Wauchula Municipal Airport, you should consider listing it here.  To start the listing process, click on the button below
 
Add a business
 

Other Pages about Wauchula Municipal Airport

Update a link
 
Copyright © AirNav, LLC. All rights reserved. Privacy Policy  Contact